GW1859 Weather Reports


Display with metric or nautical units.
time (UTC)temp
F
wind
direction
speed
MPH
gust
MPH
rain 1hr
in
rain 24hr
in
rain mn
in
humidity
%
barometer
mb
20260507104248 44 139 0.0 0.0 0.00 0.00 0.00 90 1019.3
20260507103744 44 139 0.0 0.0 0.00 0.00 0.00 90 1019.8
20260507103240 44 142 0.0 0.0 0.00 0.00 0.00 90 1019.7
20260507102737 45 140 0.0 0.0 0.00 0.00 0.00 89 1019.7
20260507102234 45 142 0.0 0.0 0.00 0.00 0.00 89 1019.8
20260507101730 45 141 0.0 0.0 0.00 0.00 0.00 89 1020.1
20260507101225 45 140 0.0 0.0 0.00 0.00 0.00 89 1019.9
20260507100722 45 136 0.0 0.0 0.00 0.00 0.00 89 1020.0
20260507100221 45 137 0.0 0.0 0.00 0.00 0.00 89 1020.3
20260507095718 45 135 0.0 0.0 0.00 0.00 0.00 89 1020.1
20260507095215 45 136 0.0 0.0 0.00 0.00 0.00 89 1020.1
20260507094712 45 136 0.0 0.0 0.00 0.00 0.00 89 1020.0
20260507094209 45 138 0.0 0.0 0.00 0.00 0.00 89 1019.8
20260507093705 45 137 0.0 0.0 0.00 0.00 0.00 89 1020.0
20260507093204 46 138 0.0 0.0 0.00 0.00 0.00 89 1020.1
20260507092701 46 139 0.0 0.0 0.00 0.00 0.00 89 1020.2
20260507092157 46 139 0.0 0.0 0.00 0.00 0.00 89 1019.9
20260507091654 46 144 0.0 0.0 0.00 0.00 0.00 89 1020.3
20260507091150 46 131 0.0 0.0 0.00 0.00 0.00 89 1020.3
20260507090645 47 131 0.0 0.0 0.00 0.00 0.00 88 1020.1
20260507090143 47 131 0.0 0.0 0.00 0.00 0.00 88 1020.2
20260507085640 47 141 0.0 0.0 0.00 0.00 0.00 88 1020.3
20260507085137 47 135 0.0 0.0 0.00 0.00 0.00 88 1020.2
20260507084634 48 135 0.0 0.0 0.00 0.00 0.00 87 1020.2
20260507084130 48 135 0.0 0.0 0.00 0.00 0.00 86 1020.1
20260507083627 48 145 0.0 0.0 0.00 0.00 0.00 85 1019.9
20260507083124 49 130 0.0 0.0 0.00 0.00 0.00 85 1020.0
20260507082619 49 133 0.0 0.0 0.00 0.00 0.00 84 1020.3
20260507082116 50 134 0.0 0.0 0.00 0.00 0.00 83 1020.0
20260507081613 50 140 0.0 0.0 0.00 0.00 0.00 82 1020.3
20260507081109 50 134 0.0 0.0 0.00 0.00 0.00 82 1020.2
20260507080606 50 133 0.0 0.0 0.00 0.00 0.00 82 1020.6
20260507075557 50 140 0.0 0.0 0.00 0.00 0.00 82 1020.4
20260507075054 50 134 0.0 0.0 0.00 0.00 0.00 82 1020.5
20260507074551 50 130 0.0 0.0 0.00 0.00 0.00 82 1020.6
20260507074049 50 139 0.0 0.0 0.00 0.00 0.00 82 1020.6
20260507073545 50 143 0.0 0.0 0.00 0.00 0.00 82 1020.4
20260507073041 50 142 0.0 0.0 0.00 0.00 0.00 82 1020.5
20260507072539 50 132 0.0 0.0 0.00 0.00 0.00 82 1020.5
20260507072036 50 130 0.0 0.0 0.00 0.00 0.00 83 1020.8
20260507071533 50 130 0.0 0.0 0.00 0.00 0.00 83 1020.8
20260507071030 50 129 0.0 0.0 0.00 0.00 0.00 81 1020.7
20260507070527 50 129 0.0 0.0 0.00 0.00 0.00 80 1021.1
20260507070024 50 129 0.0 0.0 0.00 0.00 0.00 80 1020.9
20260507065520 50 129 0.0 0.0 0.00 0.00 0.00 80 1021.0
20260507065018 50 129 0.0 0.0 0.00 0.00 0.00 79 1021.0
20260507064515 50 130 0.0 0.0 0.00 0.00 0.00 79 1021.1
20260507064014 50 130 0.0 0.0 0.00 0.00 0.00 79 1021.1
20260507063510 50 131 0.0 0.0 0.00 0.00 0.00 79 1021.2
20260507063008 50 130 0.0 0.0 0.00 0.00 0.00 80 1021.0
20260507062504 50 130 0.0 0.0 0.00 0.00 0.00 80 1020.8
20260507062002 50 130 0.0 0.0 0.00 0.00 0.00 80 1021.0
20260507061459 50 130 0.0 0.0 0.00 0.00 0.00 81 1021.0
20260507060958 50 130 0.0 0.0 0.00 0.00 0.00 79 1020.9
20260507060454 50 130 0.0 0.0 0.00 0.00 0.00 81 1020.8
20260507055951 50 130 0.0 0.0 0.00 0.00 0.00 80 1021.0
20260507055446 50 130 0.0 0.0 0.00 0.00 0.00 80 1020.9
20260507054943 50 130 0.0 0.0 0.00 0.00 0.00 78 1021.0
20260507054439 50 130 0.0 0.0 0.00 0.00 0.00 79 1021.1
20260507053936 50 127 0.0 0.0 0.00 0.00 0.00 79 1021.5
20260507053434 50 127 0.0 0.0 0.00 0.00 0.00 80 1021.5
20260507052932 50 127 0.0 0.0 0.00 0.00 0.00 81 1020.9
20260507052430 50 127 0.0 0.0 0.00 0.00 0.00 80 1021.2
20260507051927 50 127 0.0 0.0 0.00 0.00 0.00 82 1021.3
20260507051424 50 127 0.0 0.0 0.00 0.00 0.00 83 1021.0
20260507050921 50 127 0.0 0.0 0.00 0.00 0.00 82 1021.0
20260507050418 50 127 0.0 0.0 0.00 0.00 0.00 82 1021.1
20260507045915 50 127 0.0 0.0 0.00 0.00 0.00 82 1021.1
20260507045411 50 127 0.0 0.0 0.00 0.00 0.00 80 1021.2
20260507044908 49 126 0.0 0.0 0.00 0.00 0.00 82 1021.0
20260507044405 49 126 0.0 0.0 0.00 0.00 0.00 82 1020.9
20260507043901 49 127 0.0 0.0 0.00 0.00 0.00 82 1021.0
20260507043357 49 127 0.0 0.0 0.00 0.00 0.00 81 1020.9
20260507042854 49 127 0.0 0.0 0.00 0.00 0.00 82 1020.9
20260507042350 49 127 0.0 0.0 0.00 0.00 0.00 82 1020.9
20260507041846 49 127 0.0 0.0 0.00 0.00 0.00 80 1020.5
20260507041343 50 127 0.0 0.0 0.00 0.00 0.00 78 1020.8
20260507040841 50 127 0.0 0.0 0.00 0.00 0.00 79 1020.7
20260507040336 50 127 0.0 0.0 0.00 0.00 0.00 77 1020.8
20260507035832 51 127 0.0 0.0 0.00 0.00 0.00 76 1020.6
20260507035328 51 127 0.0 0.0 0.00 0.00 0.00 74 1020.8
20260507034826 51 127 0.0 0.0 0.00 0.00 0.00 74 1020.8
20260507034322 52 127 0.0 0.0 0.00 0.00 0.00 74 1021.0
20260507033821 52 127 0.0 0.0 0.00 0.00 0.00 74 1020.7
20260507033318 52 126 0.0 0.0 0.00 0.00 0.00 73 1021.1
20260507032815 52 127 0.0 0.0 0.00 0.00 0.00 74 1020.9
20260507032311 52 127 0.0 0.0 0.00 0.00 0.00 75 1020.8
20260507031808 52 127 0.0 0.0 0.00 0.00 0.00 73 1020.6
20260507031305 53 127 0.0 0.0 0.00 0.00 0.00 71 1020.6
20260507030801 53 127 0.0 0.0 0.00 0.00 0.00 71 1020.7
20260507030259 53 127 0.0 0.0 0.00 0.00 0.00 72 1020.6
20260507025756 53 128 0.0 0.0 0.00 0.00 0.00 75 1020.7
20260507025253 53 128 0.0 0.0 0.00 0.00 0.00 74 1020.6
20260507024751 53 127 0.0 0.0 0.00 0.00 0.00 73 1020.6
20260507024248 53 127 0.0 0.0 0.00 0.00 0.00 71 1020.7
20260507023743 53 127 0.0 0.0 0.00 0.00 0.00 69 1020.6
20260507023240 53 127 0.0 0.0 0.00 0.00 0.00 69 1020.5
20260507022738 53 127 0.0 0.0 0.00 0.00 0.00 71 1020.5
20260507022233 53 127 0.0 0.0 0.00 0.00 0.00 70 1020.6
20260507021730 54 127 0.0 0.0 0.00 0.00 0.00 70 1020.5
20260507021225 54 127 0.0 0.0 0.00 0.00 0.00 68 1020.3
20260507020724 54 127 0.0 0.0 0.00 0.00 0.00 68 1020.3
20260507020220 54 129 0.0 0.0 0.00 0.00 0.00 70 1020.3
20260507015718 54 130 0.0 0.0 0.00 0.00 0.00 69 1020.2
20260507015215 54 130 0.0 0.0 0.00 0.00 0.00 69 1020.0
20260507014712 55 130 0.0 0.0 0.00 0.00 0.00 69 1020.0
20260507014208 55 130 0.0 0.0 0.00 0.00 0.00 67 1019.9
20260507013705 55 130 0.0 0.0 0.00 0.00 0.00 67 1020.0
20260507013202 55 130 0.0 0.0 0.00 0.00 0.00 66 1019.7
20260507012659 55 130 0.0 0.0 0.00 0.00 0.00 64 1019.7
20260507012155 55 130 0.0 0.0 0.00 0.00 0.00 63 1019.7
20260507011653 56 130 0.0 0.0 0.00 0.00 0.00 59 1019.6
20260507011149 56 130 0.0 0.0 0.00 0.00 0.00 59 1019.3
20260507010644 56 130 0.0 0.0 0.00 0.00 0.00 58 1019.5
20260507010140 56 130 0.0 0.0 0.00 0.00 0.00 58 1019.7
20260507005637 57 131 0.0 0.0 0.00 0.00 0.00 57 1019.5
20260507005133 57 133 0.0 0.0 0.00 0.00 0.00 57 1019.5
20260507004630 57 117 0.0 0.0 0.00 0.00 0.00 56 1019.7
20260507004128 58 131 0.0 0.0 0.00 0.00 0.00 55 1019.5
20260507003624 58 139 0.0 0.0 0.00 0.00 0.00 54 1019.6
20260507003120 59 129 0.0 0.0 0.00 0.00 0.00 53 1019.6
20260507002616 59 117 0.0 0.0 0.00 0.00 0.00 53 1019.3
20260507002111 59 130 0.0 0.0 0.00 0.00 0.00 54 1019.5
20260507001608 59 128 0.0 0.0 0.00 0.00 0.00 53 1019.3
20260507001106 59 90 1.0 1.0 0.00 0.00 0.00 53 1019.5
20260507000602 59 117 0.0 0.0 0.00 0.00 0.00 53 1019.5
20260507000058 60 100 1.0 1.0 0.00 0.00 0.00 51 1019.6
20260506235555 61 159 1.0 1.0 0.00 0.00 0.00 50 1019.3
20260506235050 60 120 0.0 0.0 0.00 0.00 0.00 51 1019.1
20260506234548 59 94 1.0 1.0 0.00 0.00 0.00 51 1019.1
20260506234045 59 127 0.0 0.0 0.00 0.00 0.00 52 1019.3
20260506233542 59 121 0.0 0.0 0.00 0.00 0.00 52 1019.1
20260506233039 59 41 1.0 2.0 0.00 0.00 0.00 49 1019.2
20260506232535 59 359 1.0 2.0 0.00 0.00 0.00 50 1019.2
20260506232030 60 123 0.0 0.0 0.00 0.00 0.00 49 1019.0
20260506231528 62 120 0.0 1.0 0.00 0.00 0.00 49 1019.1
20260506231026 61 153 1.0 1.0 0.00 0.00 0.00 49 1018.9
20260506230522 60 86 2.0 2.0 0.00 0.00 0.00 51 1019.1
20260506230020 60 116 0.0 0.0 0.00 0.00 0.00 51 1019.1
20260506225516 61 129 0.0 0.0 0.00 0.00 0.00 50 1019.2
20260506225007 61 124 0.0 0.0 0.00 0.00 0.00 49 1019.2
20260506224504 61 115 0.0 1.0 0.00 0.00 0.00 49 1019.2
20260506224001 62 131 0.0 0.0 0.00 0.00 0.00 48 1019.0
20260506223456 61 119 0.0 1.0 0.00 0.00 0.00 51 1018.9
20260506222954 61 279 1.0 2.0 0.00 0.00 0.00 50 1018.9
20260506222450 61 119 0.0 0.0 0.00 0.00 0.00 51 1018.9
20260506221947 62 115 0.0 1.0 0.00 0.00 0.00 52 1018.8
20260506221444 63 353 6.0 7.0 0.00 0.00 0.00 47 1018.9
20260506220942 63 23 2.0 3.0 0.00 0.00 0.00 46 1018.9
20260506220437 62 121 0.0 0.0 0.00 0.00 0.00 47 1019.0
20260506215934 62 115 1.0 1.0 0.00 0.00 0.00 48 1019.0
20260506215430 64 136 0.0 0.0 0.00 0.00 0.00 46 1018.9
20260506214926 64 135 0.0 1.0 0.00 0.00 0.00 45 1018.8
20260506214423 64 141 0.0 1.0 0.00 0.00 0.00 43 1019.2
20260506213921 64 130 0.0 1.0 0.00 0.00 0.00 45 1019.0
20260506213418 64 51 3.0 5.0 0.00 0.00 0.00 45 1019.2
20260506212916 63 327 2.0 5.0 0.00 0.00 0.00 45 1019.1
20260506212411 64 102 1.0 2.0 0.00 0.00 0.00 45 1019.2
20260506211906 66 204 1.0 2.0 0.00 0.00 0.00 42 1019.6
20260506211403 64 118 0.0 0.0 0.00 0.00 0.00 47 1019.5
20260506210900 66 144 0.0 1.0 0.00 0.00 0.00 45 1019.2
20260506210356 64 181 0.0 0.0 0.00 0.00 0.00 45 1019.3
20260506205854 64 334 6.0 8.0 0.00 0.00 0.00 45 1019.6
20260506205349 64 147 0.0 0.0 0.00 0.00 0.00 47 1019.5
20260506204846 64 159 1.0 2.0 0.00 0.00 0.00 46 1019.5
20260506204344 64 114 2.0 2.0 0.00 0.00 0.00 44 1019.7
20260506203841 64 115 0.0 1.0 0.00 0.00 0.00 46 1019.7
20260506203338 64 314 1.0 2.0 0.00 0.00 0.00 45 1020.0
20260506202835 65 161 1.0 1.0 0.00 0.00 0.00 46 1019.8
20260506202332 65 118 1.0 2.0 0.00 0.00 0.00 46 1020.0
20260506201829 64 39 3.0 5.0 0.00 0.00 0.00 48 1020.0
20260506201326 63 183 0.0 1.0 0.00 0.00 0.00 51 1020.2
20260506200823 63 331 3.0 3.0 0.00 0.00 0.00 49 1020.3
20260506200319 63 114 1.0 1.0 0.00 0.00 0.00 48 1020.1
20260506195815 65 125 0.0 0.0 0.00 0.00 0.00 49 1020.2
20260506195313 63 121 0.0 1.0 0.00 0.00 0.00 48 1020.3
20260506194809 64 145 0.0 0.0 0.00 0.00 0.00 48 1020.3
20260506194306 64 125 1.0 1.0 0.00 0.00 0.00 47 1020.4
20260506193804 62 115 0.0 0.0 0.00 0.00 0.00 49 1020.3
20260506193300 64 287 3.0 5.0 0.00 0.00 0.00 47 1020.4
20260506192756 64 119 1.0 2.0 0.00 0.00 0.00 48 1020.6
20260506192253 62 130 0.0 0.0 0.00 0.00 0.00 48 1020.7
20260506191750 62 116 0.0 1.0 0.00 0.00 0.00 49 1020.3
20260506191246 62 127 0.0 0.0 0.00 0.00 0.00 50 1020.4
20260506190744 61 122 0.0 1.0 0.00 0.00 0.00 47 1020.6
20260506190240 63 102 1.0 2.0 0.00 0.00 0.00 50 1020.4
20260506185737 62 113 2.0 2.0 0.00 0.00 0.00 50 1020.5
20260506185234 63 136 3.0 3.0 0.00 0.00 0.00 47 1020.5
20260506184731 63 107 1.0 2.0 0.00 0.00 0.00 49 1020.5
20260506184228 61 118 0.0 0.0 0.00 0.00 0.00 55 1020.6
20260506183725 61 100 2.0 2.0 0.00 0.00 0.00 51 1020.6
20260506183221 61 110 3.0 3.0 0.00 0.00 0.00 54 1020.7
20260506182718 63 105 2.0 3.0 0.00 0.00 0.00 53 1020.6
20260506182215 63 121 0.0 1.0 0.00 0.00 0.00 55 1021.0
20260506181713 62 115 1.0 1.0 0.00 0.00 0.00 54 1020.9
20260506181211 60 146 2.0 2.0 0.00 0.00 0.00 54 1020.6
20260506180707 59 121 3.0 6.0 0.00 0.00 0.00 55 1020.8
20260506180203 59 41 4.0 5.0 0.00 0.00 0.00 56 1021.2
20260506175700 58 110 2.0 3.0 0.00 0.00 0.00 57 1021.1
20260506175156 58 107 0.0 1.0 0.00 0.00 0.00 58 1021.3
20260506174649 58 116 1.0 1.0 0.00 0.00 0.00 59 1021.6
20260506174145 58 133 1.0 1.0 0.00 0.00 0.00 57 1021.3
20260506173643 57 120 1.0 3.0 0.00 0.00 0.00 61 1021.0
20260506173134 57 63 3.0 5.0 0.00 0.00 0.00 59 1021.5
20260506172631 57 112 1.0 2.0 0.00 0.00 0.00 63 1021.4
20260506172127 57 116 0.0 1.0 0.00 0.00 0.00 63 1021.4
20260506171625 56 129 0.0 0.0 0.00 0.00 0.00 68 1021.6
20260506171122 56 108 0.0 1.0 0.00 0.00 0.00 66 1021.7
20260506170620 56 69 1.0 2.0 0.00 0.00 0.00 66 1021.4
20260506170117 56 105 0.0 0.0 0.00 0.00 0.00 68 1021.4
20260506165615 57 330 3.0 3.0 0.00 0.00 0.00 67 1021.3
20260506165111 57 324 1.0 5.0 0.00 0.00 0.00 68 1021.2
20260506164609 56 341 0.0 1.0 0.00 0.00 0.00 72 1021.3
20260506164106 54 99 2.0 2.0 0.00 0.00 0.00 74 1021.1
20260506163601 54 115 0.0 0.0 0.00 0.00 0.00 72 1021.0
20260506163057 55 318 3.0 6.0 0.00 0.00 0.00 74 1021.5
20260506162553 54 125 0.0 0.0 0.00 0.00 0.00 74 1021.3
20260506162045 53 110 1.0 2.0 0.00 0.00 0.00 75 1021.1
20260506161543 52 0 1.0 2.0 0.00 0.00 0.00 74 1020.9
20260506161039 52 121 0.0 0.0 0.00 0.00 0.00 75 1021.0
20260506160537 52 117 0.0 0.0 0.00 0.00 0.00 79 1021.3
20260506160034 52 310 4.0 5.0 0.00 0.00 0.00 77 1021.2
20260506155533 52 93 0.0 0.0 0.00 0.00 0.00 78 1021.1
20260506153709 51 123 0.0 0.0 0.00 0.00 0.00 83 1021.3
20260506153207 50 348 4.0 6.0 0.00 0.00 0.00 83 1021.4
20260506152703 50 120 0.0 0.0 0.00 0.00 0.00 87 1021.1
20260506152201 50 112 0.0 0.0 0.00 0.00 0.00 84 1021.2
20260506151700 50 109 0.0 0.0 0.00 0.00 0.00 87 1021.1
20260506151155 49 112 0.0 0.0 0.00 0.00 0.00 87 1021.0
20260506150652 49 90 0.0 0.0 0.00 0.00 0.00 87 1021.0
20260506150150 49 124 0.0 0.0 0.00 0.00 0.00 90 1021.3
20260506145646 48 115 0.0 0.0 0.00 0.00 0.00 87 1021.2
20260506145143 49 119 0.0 0.0 0.00 0.00 0.00 91 1021.0
20260506144641 48 11 0.0 1.0 0.00 0.00 0.00 90 1021.2
20260506144137 48 114 0.0 0.0 0.00 0.00 0.00 91 1021.4
20260506143635 48 25 0.0 0.0 0.00 0.00 0.00 91 1021.0
20260506143133 48 13 1.0 3.0 0.00 0.00 0.00 92 1020.9
20260506142631 48 123 0.0 0.0 0.00 0.00 0.00 92 1020.8
20260506142129 47 111 0.0 0.0 0.00 0.00 0.00 93 1020.5
20260506141626 47 120 0.0 0.0 0.00 0.00 0.00 93 1020.7
20260506141124 47 119 0.0 0.0 0.00 0.00 0.00 93 1021.1
20260506140622 47 93 0.0 1.0 0.00 0.00 0.00 91 1021.2
20260506140119 47 347 1.0 2.0 0.00 0.00 0.00 93 1020.9
20260506135616 47 119 0.0 0.0 0.00 0.00 0.00 93 1020.9
20260506135112 47 91 0.0 0.0 0.00 0.00 0.00 93 1020.8
20260506134609 47 125 0.0 0.0 0.00 0.00 0.00 93 1020.8
20260506134104 47 126 0.0 0.0 0.00 0.00 0.00 93 1021.0
20260506133602 47 110 1.0 1.0 0.00 0.00 0.00 94 1020.6
20260506133059 46 131 0.0 0.0 0.00 0.00 0.00 94 1020.4
20260506132556 46 131 0.0 0.0 0.00 0.00 0.00 94 1020.8
20260506132053 46 133 0.0 0.0 0.00 0.00 0.00 95 1020.5
20260506131550 46 133 0.0 0.0 0.00 0.00 0.00 95 1020.8
20260506131046 45 133 0.0 0.0 0.00 0.00 0.00 95 1020.6
20260506130543 45 133 0.0 0.0 0.00 0.00 0.00 95 1020.6
20260506130041 45 131 0.0 0.0 0.00 0.00 0.00 95 1020.7
20260506125539 45 131 0.0 0.0 0.00 0.00 0.00 95 1020.4
20260506125036 45 131 0.0 0.0 0.00 0.00 0.00 95 1020.5
20260506124534 45 131 0.0 0.0 0.00 0.00 0.00 95 1020.3
20260506124032 44 130 0.0 0.0 0.00 0.00 0.00 95 1019.9
20260506123529 44 130 0.0 0.0 0.00 0.00 0.00 95 1019.6
20260506123027 44 130 0.0 0.0 0.00 0.00 0.00 95 1019.8
20260506122523 44 131 0.0 0.0 0.00 0.00 0.00 95 1020.1
20260506122022 44 131 0.0 0.0 0.00 0.00 0.00 95 1019.9
20260506121519 44 152 0.0 0.0 0.00 0.00 0.00 95 1019.8
20260506121015 44 293 0.0 0.0 0.00 0.00 0.00 95 1019.9
20260506120514 43 123 0.0 0.0 0.00 0.00 0.00 95 1019.7
20260506120010 43 121 0.0 0.0 0.00 0.00 0.00 95 1019.8
20260506115508 43 120 0.0 0.0 0.00 0.00 0.00 95 1019.6
20260506115007 43 121 0.0 0.0 0.00 0.00 0.00 95 1019.6
20260506114503 43 121 0.0 0.0 0.00 0.00 0.00 95 1019.3
20260506114002 43 121 0.0 0.0 0.00 0.00 0.00 95 1019.5
20260506113459 43 122 0.0 0.0 0.00 0.00 0.00 95 1019.2
20260506112956 43 122 0.0 0.0 0.00 0.00 0.00 95 1018.7
20260506112453 43 122 0.0 0.0 0.00 0.00 0.00 95 1018.6
20260506111950 43 122 0.0 0.0 0.00 0.00 0.00 95 1018.6
20260506111448 43 122 0.0 0.0 0.00 0.00 0.00 95 1018.5
20260506110945 43 122 0.0 0.0 0.00 0.00 0.00 95 1018.3
20260506110443 43 124 0.0 0.0 0.00 0.00 0.00 95 1018.1
20260506105939 43 124 0.0 0.0 0.00 0.00 0.00 95 1018.3
20260506105436 43 124 0.0 0.0 0.00 0.00 0.00 95 1018.5
20260506104933 43 124 0.0 0.0 0.00 0.00 0.00 95 1018.3
20260506104431 43 122 0.0 0.0 0.00 0.00 0.00 95 1018.2